Simultaneous Nadir Overpasses (SNOs) Predictions

Prediction of SNOs between GOES-15 and METOP-A Satellite Orbit:

Table of predicted SNOs for the next 14.0 days since TLE Epoch: 4/20/2018
Index Date Time (GOES-15) GOES-15 Lat,Lon METOP-A Lat,Lon Distance(km) Time Diff (sec)
1 04/23/2018 06:23:34 0.09,-135.42 0.10,-135.53 11.75 80
2 04/25/2018 18:24:21 -0.10,-135.45 -0.16,-135.09 40.43 80
3 04/27/2018 06:40:40 0.11,-135.47 -0.85,-139.69 481.17 80
4 04/28/2018 06:22:39 0.10,-135.48 0.29,-134.70 89.30 80
5 04/29/2018 18:38:49 -0.11,-135.49 0.74,-139.26 429.93 80
6 04/30/2018 18:20:48 -0.11,-135.50 -0.40,-134.27 140.10 80
7 05/02/2018 06:37:05 0.12,-135.51 -0.66,-138.87 382.46 80
8 05/03/2018 06:19:05 0.12,-135.52 0.48,-133.88 187.25 80
9 05/04/2018 18:37:54 -0.13,-135.52 0.55,-138.44 333.14 80




NCC Satellite Simultaneous Nadir Overpasses (SNOs) Prediction Service
